Погода в Гривенской

Россия / Краснодарский край     45°38′40″N   38°09′33″E
темп.,
°C
ветер,
м/с
пор.,
м/с
влажн.,
%
обл.,
%
осадки,
мм/ч
давл.,
гПа
погр.,
м
1 июля, пт
пт100:00+20всв333778 0.0 101235
03:00+19св343981 0.0 101362
06:00+19в34524 0.0 101271
09:00+25всв33390 0.0 1013506
12:00+29ссв33320 0.0 10131645
15:00+29ссз65330 0.0 10121974
18:00+27сз34370 0.0 1011805
21:00+20ссз49660 0.0 1012144
2 июля, сб
сб200:00+20с412730 0.0 1013252
03:00+18ссв410610 0.0 1013200
06:00+18ссв510670 0.0 1015408
09:00+20св67430 0.0 10171075
12:00+23с78310 0.0 10171494
15:00+24с78330 0.0 10171743
18:00+24с69370 0.0 10161903
21:00+18ссз35530 0.0 101756
3 июля, вс
вс300:00+18с34620 0.0 101756
03:00+17с34680 0.0 101744
06:00+18с36730 0.0 1018161
09:00+23с45470 0.0 10181459
12:00+26с55360 0.0 10172109
15:00+27ссз66340 0.0 10162106
18:00+24зсз67440 0.0 1016606
21:00+19сз496951 0.0 1016157
4 июля, пн
пн400:00+19сз34780 0.0 101657
03:00+18св22845 0.0 101612
06:00+20ссв11725 0.0 101611
09:00+26с34505 0.0 1016988
12:00+29ссз554451 0.0 10162169
15:00+29сз55425 0.0 10151753
18:00+28зсз54455 0.0 1014679
21:00+21сз238099 0.0 101541
5 июля, вт
вт500:00+21ссз33830 0.0 101540
03:00+20всв35750 0.0 101586
06:00+20всв36650 0.0 1016142
09:00+26всв56470 0.0 1017709
12:00+30всв56350 0.0 10172103
15:00+32всв45270 0.0 10152556
18:00+30св35290 0.0 10151766
21:00+23вюв33440 0.0 101617